{"data":{"norad_id":59387,"intl_designator":"2024-062P","name":"STARLINK-31714","alt_names":[],"object_type":"PAYLOAD","status":"ACTIVE","operator":null,"country":"US","launch_date":"2024-04-02","launch_site_code":"AFWTR","launch_vehicle":null,"mission":null,"orbit_class":"UNKNOWN","rcs_meters":null,"size_class":null,"mass_kg":null,"dimensions":null,"purposes":["comms"],"wikipedia_slug":null,"has_3d_model":false,"image_url":null,"decayed_at":null,"tle_current":{"epoch":"2026-09-21T17:22:08.221728Z","epoch_age_seconds":56569,"freshness":"FRESH","line1":"1 59387U 24062P   26264.72370627  .00000184  00000+0  16574-4 0  9999","line2":"2 59387  53.1613  61.6644 0001035  58.4809 301.6294 15.34392742139685","mean_motion":15.34392742,"eccentricity":0.0001035,"inclination_deg":53.1613,"raan_deg":61.6644,"arg_perigee_deg":58.4809,"mean_anomaly_deg":301.6294,"bstar":1.6574e-5,"rev_number":13968,"period_min":93.848202000945,"perigee_km":462.01678340009,"apogee_km":463.4328417953,"semimajor_km":6840.8618125977,"source":"CELESTRAK","updated_at":"2026-09-22T09:00:48.910494Z"}}}